Simultaneous Nadir Overpasses (SNOs) Predictions

Prediction of SNOs between GOES-14 and AQUA Satellite Orbit:

Table of predicted SNOs for the next 14.0 days since TLE Epoch: 9/12/2025
Index Date Time (GOES-14) GOES-14 Lat,Lon AQUA Lat,Lon Distance(km) Time Diff (sec)
1 09/13/2025 10:00:31 -0.77,-108.33 -1.00,-107.34 113.26 80
2 09/13/2025 22:22:22 0.71,-108.29 -0.08,-111.96 417.42 80
3 09/15/2025 21:59:06 0.76,-108.31 1.05,-106.92 157.78 80
4 09/16/2025 10:20:48 -0.69,-108.35 0.01,-111.51 359.98 80
5 09/18/2025 09:57:31 -0.74,-108.36 -1.15,-106.47 215.23 80
6 09/18/2025 22:19:23 0.67,-108.32 0.08,-111.10 315.57 80
7 09/20/2025 21:56:05 0.72,-108.35 1.21,-106.05 261.01 80
8 09/21/2025 10:17:48 -0.65,-108.40 -0.17,-110.64 255.62 80
9 09/23/2025 09:54:30 -0.70,-108.42 -1.32,-105.60 320.76 80
10 09/23/2025 22:16:21 0.62,-108.37 0.21,-110.22 210.21 80
11 09/25/2025 21:53:02 0.67,-108.39 1.34,-105.16 366.62 80
12 09/26/2025 10:14:45 -0.59,-108.45 -0.30,-109.76 149.38 80
